Theta_e
329 329 328 327 326 326 325 325 325 325 324 324 324 323 323 323 323 322 322 322 322 321 320 320 319 320 320 319 317 315 314 316 318 317 314 314 314 313 313 313 313 313 312 312 313 318 322 323 322 322 322 323 323 322 323 321 318 317 315 316 316 314 315 317 316 316 314 312 312 309 306 305 306 306 306 306 305 305 306 306 306 306 305 305 305
328 328 326 325 325 325 324 324 325 325 324 324 323 323 323 323 323 322 320 320 321 320 319 319 318 319 319 318 316 314 312 315 317 316 314 314 314 313 313 313 313 312 312 312 312 314 318 321 322 322 322 322 322 322 322 320 319 319 318 318 319 318 316 317 317 316 314 313 312 310 307 306 307 307 307 307 306 306 307 307 307 307 306 306 305
326 326 325 324 324 324 324 324 324 324 323 323 323 323 324 323 323 322 320 320 320 320 319 318 318 318 318 316 315 314 313 313 315 315 314 314 314 313 313 313 313 312 312 312 312 312 314 317 320 321 322 322 322 322 322 320 320 321 321 320 320 320 318 318 317 316 315 315 313 311 309 308 309 309 308 308 307 307 308 309 307 307 307 307 306
326 325 325 324 323 323 323 322 323 323 322 322 323 324 324 323 323 322 320 319 319 319 318 317 317 317 317 316 315 314 313 313 314 315 314 314 314 313 313 313 313 313 313 312 313 313 313 314 315 316 318 319 320 320 320 319 319 320 321 320 320 320 319 319 318 317 316 315 313 312 311 311 310 310 309 308 307 308 310 310 308 307 307 307 307
326 325 326 324 322 322 322 322 322 322 322 322 323 324 323 323 323 322 320 319 319 318 318 317 317 317 316 315 314 313 314 314 314 314 313 313 314 313 313 313 313 313 313 313 312 312 312 312 313 313 313 315 315 315 315 315 315 316 317 317 317 316 317 318 318 318 316 315 313 312 312 311 311 310 309 309 308 308 309 309 309 308 307 306 306
326 326 326 324 322 321 321 321 322 321 322 323 323 323 323 323 323 322 320 319 317 316 316 316 317 317 316 315 314 313 313 313 314 314 313 312 313 314 314 313 313 313 313 313 313 313 312 312 313 313 313 314 314 313 314 314 314 314 314 314 313 312 313 316 317 317 317 316 314 312 311 311 311 310 309 309 310 310 309 309 309 309 307 306 306
325 324 324 323 322 321 321 321 322 322 322 323 322 322 323 322 322 321 320 318 316 314 314 315 316 316 316 315 314 313 313 313 314 314 314 313 313 314 314 314 313 313 313 313 313 314 314 313 313 313 314 314 314 314 314 314 314 314 314 313 312 311 312 315 315 315 316 316 314 313 311 311 311 311 309 308 309 310 310 310 309 308 308 307 306
323 322 323 322 320 320 321 321 321 322 322 322 322 322 321 320 320 319 318 317 315 314 314 314 314 315 315 315 315 314 313 313 314 314 314 314 314 314 314 314 313 313 313 313 313 313 314 315 315 316 316 316 316 316 316 315 315 315 314 314 314 312 311 313 314 314 315 315 314 313 313 311 311 311 310 308 309 310 310 310 310 309 308 307 306
322 321 321 321 320 320 321 321 321 320 320 320 320 320 319 318 317 317 316 315 314 314 314 314 314 314 314 315 315 315 314 314 314 314 314 314 314 314 315 314 313 313 313 313 313 313 314 314 315 316 316 317 317 317 317 317 317 316 316 315 314 313 312 312 313 314 314 314 313 313 313 312 311 311 310 309 309 310 310 310 311 310 308 307 305
321 321 321 320 320 320 320 320 320 320 320 319 319 318 318 318 317 318 318 317 315 314 314 314 315 315 315 315 315 315 314 314 314 315 315 315 315 315 315 315 314 313 313 314 314 314 314 315 315 316 316 317 318 318 317 318 318 318 317 317 316 314 313 313 313 313 312 312 312 312 312 313 312 312 311 309 309 310 309 309 311 310 308 307 306
320 320 320 319 319 319 320 320 319 319 318 318 319 318 317 318 318 318 319 318 316 316 316 315 316 316 315 315 315 315 314 314 315 315 315 315 315 316 316 316 316 315 314 314 315 316 316 316 316 316 317 317 318 318 318 318 318 318 318 317 317 316 315 315 315 314 313 312 313 312 312 312 313 312 311 310 308 308 308 308 309 309 308 309 308
318 318 318 318 318 319 319 319 318 318 317 317 317 316 316 316 317 317 318 317 316 316 317 316 316 316 316 316 316 316 315 315 315 316 316 315 316 316 316 317 317 316 316 315 315 317 318 318 318 318 318 318 319 319 319 319 319 319 318 318 318 317 316 316 316 315 314 314 315 314 312 313 313 312 310 309 308 307 307 308 309 309 309 310 310
314 315 316 317 318 318 318 318 318 318 318 317 316 316 316 317 317 318 319 318 317 317 318 318 318 317 317 316 316 316 317 316 317 317 316 316 316 316 316 317 317 317 317 317 317 317 318 318 318 318 318 319 319 319 319 319 319 319 319 318 318 318 317 317 316 316 316 315 316 316 315 314 314 313 309 308 307 307 307 308 309 309 310 311 311
310 311 312 314 316 317 317 317 318 318 318 318 317 317 317 318 318 319 319 319 319 319 319 319 319 319 318 318 318 317 317 317 317 317 317 317 317 317 317 316 317 317 317 317 317 317 317 317 318 318 319 319 319 319 319 319 319 319 319 319 318 318 318 318 317 316 316 316 316 317 317 316 315 313 311 310 308 307 308 309 310 310 310 310 309
306 306 307 308 310 313 315 316 316 316 316 317 317 316 316 316 317 317 318 318 318 318 319 319 319 319 319 319 319 318 318 318 319 319 318 318 318 318 317 317 317 317 317 317 318 318 318 318 318 318 319 319 319 319 319 319 319 319 319 319 319 318 318 318 318 318 317 317 317 317 317 317 316 314 313 311 310 308 309 309 309 309 308 308 306
302 303 303 304 305 307 309 310 311 312 312 313 312 310 311 311 311 312 313 314 313 313 314 314 314 314 314 315 315 314 314 315 317 318 319 319 319 319 319 318 318 318 318 318 318 318 319 319 319 319 319 319 319 319 319 319 319 319 319 319 319 319 319 319 318 318 318 318 318 318 317 317 316 314 313 312 311 309 308 308 308 307 306 305 303
299 300 300 301 302 303 304 305 306 307 308 308 306 305 305 305 305 306 308 308 308 308 307 307 307 307 308 308 308 308 308 309 311 314 316 317 318 319 319 319 319 319 319 319 319 319 319 319 319 319 319 319 319 319 319 319 318 319 319 318 318 318 318 318 318 318 318 318 318 317 317 316 315 313 312 312 311 309 307 306 306 305 304 304 303
298 299 299 299 300 301 301 302 302 303 303 303 303 303 303 303 303 303 304 305 305 304 304 304 304 304 305 306 305 304 304 304 306 308 309 311 312 314 315 316 317 318 318 318 318 318 319 319 319 320 320 320 320 320 319 319 318 318 318 318 318 317 317 318 317 316 316 315 315 315 315 314 313 312 312 311 310 307 306 306 305 304 304 303 303
297 298 298 298 299 299 299 299 300 300 300 299 300 300 300 300 301 301 302 302 302 302 303 303 303 303 304 305 305 305 304 302 303 304 305 307 308 309 310 311 312 313 314 315 316 316 317 317 318 319 320 320 320 320 320 319 318 318 318 318 318 318 317 317 317 315 314 312 312 312 312 311 311 311 309 308 307 306 306 306 306 305 304 304 302
297 297 297 297 298 298 298 298 298 298 298 298 298 298 298 298 299 299 299 299 300 300 300 300 301 301 301 301 302 303 302 301 301 302 302 303 304 305 306 307 308 309 310 311 313 314 314 315 316 317 318 318 319 319 319 319 318 318 318 317 317 317 317 317 316 314 311 310 310 310 309 309 308 307 306 306 306 306 306 306 305 304 303 303 301
296 296 296 296 296 296 296 297 297 297 297 297 297 297 297 298 298 298 298 298 298 298 298 298 298 298 298 299 299 299 299 299 300 300 300 301 301 302 303 304 305 307 307 308 309 310 311 313 314 315 315 316 317 317 317 318 317 317 317 316 316 317 316 316 316 313 310 309 309 308 307 307 306 305 305 305 305 305 305 304 303 302 301 301 301
295 295 295 295 295 295 295 295 295 295 295 296 296 296 296 296 296 297 297 297 297 297 297 297 297 297 297 297 297 297 297 298 298 299 299 299 300 300 300 301 302 303 304 306 307 308 309 310 311 312 312 313 314 315 316 316 315 315 316 316 316 316 315 315 314 312 310 308 308 307 306 305 305 304 304 304 304 304 303 302 302 301 300 300 299
295 295 295 295 295 295 295 295 294 295 295 295 295 295 295 295 295 295 295 296 296 296 296 296 296 296 296 296 296 296 296 297 297 297 297 298 298 298 299 299 299 300 301 302 304 305 307 308 308 309 310 311 311 312 312 312 312 313 314 315 315 315 314 313 312 311 309 308 307 306 305 305 304 303 304 304 303 302 301 301 300 299 299 298 297
295 295 294 294 294 294 294 294 294 294 294 294 295 295 294 295 295 295 295 295 296 296 296 296 296 296 295 295 295 295 295 296 296 296 296 296 297 297 297 298 298 298 299 300 301 303 305 306 307 308 309 309 309 309 310 310 311 312 313 313 314 314 313 311 310 309 308 307 306 305 305 304 303 303 303 303 301 300 300 299 298 297 296 296 295
295 295 295 294 294 294 294 294 294 294 294 294 294 294 294 295 295 295 295 296 296 297 297 296 296 296 296 295 295 294 294 295 295 295 295 295 295 296 296 296 297 297 297 298 299 301 303 305 306 307 308 308 308 307 307 308 309 310 311 312 312 312 311 309 308 308 307 305 305 304 303 302 302 302 302 301 300 299 298 296 295 295 294 294 293
295 295 295 294 294 294 294 294 293 293 293 294 294 294 294 294 295 295 295 296 296 296 296 295 295 295 296 296 295 294 294 294 294 294 294 294 295 294 295 295 296 296 296 297 298 299 301 304 305 306 306 306 306 305 305 304 305 306 308 310 310 310 309 307 307 307 306 305 304 303 302 302 302 301 300 299 298 297 296 295 294 294 293 293 293
295 295 295 294 293 293 294 294 294 294 294 294 294 294 294 294 294 294 294 295 295 295 295 294 295 295 295 295 295 295 294 295 295 295 294 294 294 294 294 294 294 294 295 296 296 297 299 301 303 305 305 305 305 305 305 304 303 304 306 308 308 308 307 307 307 307 306 306 304 303 302 302 301 300 298 297 296 295 295 294 294 293 292 293 293
295 295 294 294 293 294 294 294 294 295 294 294 294 294 294 294 294 294 294 294 294 294 294 294 294 294 294 295 295 295 295 295 295 294 293 293 293 293 293 294 294 294 294 294 295 296 297 299 301 303 303 303 303 303 303 303 303 303 304 305 306 306 307 307 306 306 306 305 303 301 301 300 299 298 297 296 295 294 294 293 293 292 292 292 293
295 295 294 294 294 294 294 294 295 295 295 295 294 294 293 293 294 294 294 293 293 293 294 294 294 294 294 294 294 295 295 295 295 294 293 293 293 293 293 293 293 293 294 294 294 295 296 298 300 301 302 302 301 301 301 302 302 302 303 303 303 304 305 305 304 304 303 301 300 299 299 298 297 296 295 294 294 293 293 292 292 292 291 292 293
295 295 295 294 294 294 295 295 295 295 295 295 295 295 294 294 293 294 293 293 293 293 293 293 293 293 293 294 294 293 294 294 294 294 294 294 293 293 293 293 293 294 294 294 295 296 297 298 299 300 301 301 301 301 301 301 301 301 301 302 302 302 302 302 302 301 300 300 300 299 298 297 296 295 294 293 293 292 292 292 292 292 292 292 293
296 295 295 294 294 294 295 295 295 295 295 295 295 295 295 295 294 293 293 293 293 293 293 293 293 293 293 293 293 293 294 294 295 295 295 295 295 295 295 295 295 295 295 296 296 296 297 298 299 300 301 301 300 300 300 300 301 301 300 301 301 300 300 300 299 299 299 299 299 298 297 296 295 294 293 293 293 292 292 292 292 292 292 292 292
295 295 294 294 294 295 295 295 294 294 295 295 295 295 295 296 295 294 294 294 294 294 294 294 294 293 293 293 293 294 294 295 295 295 296 296 296 296 296 296 296 297 297 296 297 297 298 299 299 300 300 300 300 299 299 300 300 300 300 300 300 299 299 299 299 299 299 298 297 297 296 295 294 293 293 293 293 292 292 291 292 292 292 292 292
294 294 294 294 295 295 295 294 294 294 294 294 295 295 295 295 295 295 294 294 294 294 294 294 294 294 294 294 294 294 295 295 295 296 296 296 297 297 297 297 297 297 297 297 297 297 298 299 300 300 300 300 299 299 299 299 299 299 299 299 298 297 298 299 299 298 298 298 297 296 295 294 294 293 293 292 292 292 292 292 292 292 292 292 291
294 294 294 294 295 295 294 294 294 294 294 294 294 294 294 294 294 294 294 294 294 294 294 294 294 294 294 294 294 295 295 295 296 296 296 296 296 297 297 297 297 297 297 296 297 298 299 299 299 300 299 299 299 299 299 298 298 298 298 298 297 297 298 298 298 298 298 297 296 295 294 294 294 293 292 292 292 292 292 292 292 292 291 291 291
294 294 294 294 295 295 294 293 293 293 294 294 294 294 294 294 293 293 294 294 294 295 294 294 294 294 294 295 295 295 295 295 296 296 296 296 296 297 296 296 296 295 295 296 296 297 298 298 299 299 299 298 298 298 298 297 297 296 296 296 296 296 297 297 297 297 297 296 295 294 294 294 293 292 292 292 291 291 291 291 291 291 291 291 291
295 294 294 294 295 294 294 293 293 293 293 294 294 294 293 293 293 293 293 293 293 294 294 294 294 294 294 295 295 295 295 295 295 295 295 295 296 296 295 294 294 294 294 295 295 296 296 297 298 298 298 297 297 297 297 296 295 295 295 295 295 295 296 296 296 296 295 295 294 294 293 293 292 292 292 291 291 291 291 290 290 290 290 290 290
295 295 294 294 294 295 294 293 293 293 292 293 294 294 294 293 293 293 293 293 293 293 294 294 294 294 294 294 294 294 294 294 295 294 295 295 295 295 294 294 294 294 295 295 295 295 296 297 297 297 297 296 296 296 295 294 294 294 294 294 294 294 294 295 295 295 294 293 293 293 292 292 292 291 291 291 291 290 290 290 290 290 290 290 290
295 295 294 294 294 295 295 294 293 293 293 293 294 294 294 293 293 293 293 293 293 293 293 293 292 293 293 293 293 294 294 294 295 294 294 294 294 293 292 292 293 294 294 295 295 296 296 296 296 296 296 296 295 294 294 293 293 292 293 293 293 293 293 294 294 293 293 292 292 292 292 291 291 291 291 290 290 290 290 290 290 290 290 290 290
295 294 294 294 294 294 295 294 293 293 293 293 293 294 293 293 293 293 293 293 293 292 293 292 292 291 291 291 292 293 293 293 293 292 291 291 291 291 291 291 291 292 293 293 294 294 295 295 295 294 294 295 294 293 292 292 291 291 292 292 293 292 292 292 292 292 292 292 292 292 291 291 290 290 290 290 290 290 290 290 290 290 290 290 290
295 294 294 293 294 294 294 293 293 293 293 293 293 293 293 293 293 293 293 293 293 292 292 292 291 290 290 291 292 293 292 291 290 290 290 290 290 290 290 290 290 290 291 291 292 292 293 294 294 293 293 293 293 292 291 291 291 291 291 292 292 292 292 293 292 292 291 291 291 291 290 289 289 289 290 290 290 290 290 290 290 290 290 290 290
295 294 294 293 294 294 294 293 293 292 292 292 293 293 293 293 293 293 293 293 293 292 292 292 291 290 290 291 293 293 291 290 290 289 289 289 289 289 289 289 289 289 289 290 290 291 291 292 293 292 292 292 291 291 291 291 291 291 291 292 292 293 293 293 292 291 291 291 290 290 289 289 289 289 289 289 290 290 290 290 290 290 290 290 290
295 294 294 293 294 294 294 293 292 292 292 292 293 293 293 293 293 293 293 293 292 292 292 291 290 290 291 293 294 293 291 290 289 289 289 289 289 288 288 288 288 288 288 288 289 289 290 291 291 291 290 291 291 291 290 290 291 291 292 293 294 293 293 292 291 291 291 290 290 289 289 289 289 289 289 289 290 290 290 290 290 290 290 290 290
295 294 293 293 294 293 293 293 292 292 292 292 293 293 293 293 293 293 292 292 292 292 292 291 291 291 292 293 293 292 291 290 290 289 289 289 289 288 288 288 288 288 288 288 288 289 290 290 290 290 290 290 291 291 291 291 292 292 293 293 293 292 292 291 291 290 290 290 289 289 289 289 289 289 289 289 289 290 290 290 290 290 290 290 290
295 294 293 293 293 293 293 292 292 292 292 292 293 293 293 293 293 292 292 292 292 292 292 291 291 292 292 292 292 292 291 291 290 290 289 289 289 288 288 289 289 289 288 288 288 289 289 289 289 289 289 289 290 290 291 292 292 292 292 292 291 291 291 291 291 291 290 289 289 288 289 289 289 289 289 289 289 289 290 290 290 289 290 290 290
295 294 293 293 293 293 292 292 292 292 292 292 293 293 293 293 293 292 292 292 292 292 292 292 292 292 292 291 291 291 291 291 290 290 289 289 289 289 289 290 290 290 290 290 290 290 290 290 290 290 290 290 290 290 291 291 292 292 292 292 292 291 291 291 291 291 290 289 288 288 288 289 289 289 289 289 289 289 289 289 289 289 289 290 290
295 294 293 293 293 293 293 292 292 292 292 293 293 293 293 293 293 292 292 292 292 292 292 292 292 292 292 291 291 291 290 290 290 290 289 289 289 289 289 289 290 289 289 290 290 290 290 290 290 291 291 291 291 291 292 292 292 292 292 292 292 291 291 291 291 290 289 289 288 288 288 289 289 288 289 289 289 289 289 289 289 289 289 289 290
295 294 294 293 293 293 293 292 292 292 292 293 293 293 293 293 293 292 293 292 292 292 292 292 292 292 292 291 291 291 290 290 290 289 289 288 288 287 287 288 288 288 288 289 289 289 289 289 289 289 290 290 291 291 291 291 292 292 291 291 291 291 291 290 289 289 288 288 288 288 288 289 288 288 288 288 289 289 289 289 289 289 289 289 289
294 294 294 293 293 293 293 293 292 292 292 293 293 293 293 293 293 293 293 292 292 292 292 292 292 292 292 291 291 291 290 290 289 289 289 288 288 288 288 288 288 288 288 288 288 289 289 289 289 288 288 288 288 289 289 290 290 290 290 290 290 290 289 289 288 288 288 288 288 288 288 288 288 288 288 288 288 289 289 289 289 289 289 289 289
294 294 294 293 293 293 293 293 293 293 293 293 293 293 293 293 293 293 292 292 292 292 292 292 292 292 291 291 291 291 290 290 289 289 289 289 288 288 288 288 288 288 288 288 288 288 288 288 287 287 287 287 287 287 288 288 288 288 288 288 288 288 288 288 288 288 288 288 288 288 288 288 288 288 288 288 288 288 288 288 288 288 289 289 289
292 293 294 294 293 293 293 293 292 292 292 292 293 293 293 293 293 293 292 292 292 292 292 292 291 291 291 291 291 290 290 290 289 289 289 289 288 288 288 287 288 287 288 288 288 288 288 288 287 286 286 287 287 288 288 288 288 288 288 288 288 288 288 288 288 288 288 288 288 288 288 288 288 288 288 288 288 288 288 288 288 288 288 288 288
290 292 293 294 293 293 293 293 293 292 292 292 292 292 292 292 292 292 292 292 292 292 292 291 291 291 290 290 290 290 289 289 289 288 288 288 288 288 288 287 287 287 288 288 288 288 288 287 287 286 286 287 287 288 288 288 288 288 288 288 288 288 288 288 288 288 288 288 288 288 287 287 287 287 287 287 288 288 288 288 288 288 288 288 288
Wind_Speed
23 23 22 21 22 24 24 24 24 23 22 21 19 18 16 15 14 13 12 12 13 12 12 11 11 12 12 11 9 6 6 7 8 7 8 10 9 9 8 6 5 5 6 6 7 7 9 11 11 12 12 12 13 13 13 16 17 14 12 9 5 7 6 1 4 8 10 10 9 11 15 17 16 14 14 15 15 14 13 12 11 10 9 8 7
24 23 23 21 22 22 23 23 23 23 22 21 19 17 16 14 13 12 12 13 13 12 11 10 11 12 12 11 9 7 7 8 8 8 8 9 8 7 5 4 3 4 5 6 7 7 7 9 10 10 11 11 12 12 12 14 14 12 10 8 5 5 5 2 3 7 10 11 10 11 16 17 15 15 16 15 15 14 11 11 11 10 9 8 6
24 23 23 22 22 22 22 23 23 22 21 21 19 17 15 14 13 12 12 12 13 12 10 10 12 12 12 11 9 8 7 8 9 8 8 8 7 5 4 5 5 5 6 6 7 7 6 7 8 8 8 9 9 9 10 11 10 9 9 9 8 7 7 5 4 5 9 11 11 12 15 17 14 14 16 15 15 14 11 10 10 10 10 8 7
22 21 22 21 22 22 23 23 23 21 20 20 19 17 15 14 13 12 11 11 12 11 10 10 12 12 11 10 8 7 7 8 8 8 8 7 5 4 5 6 6 6 7 6 6 6 6 5 5 6 6 6 6 6 7 8 9 9 9 10 11 11 11 9 7 6 7 10 12 12 13 16 15 13 14 16 16 14 11 10 10 9 9 10 9
21 20 20 20 22 22 23 23 22 20 20 19 18 16 15 15 13 12 11 11 11 11 10 10 11 12 11 9 7 7 7 7 7 7 7 7 5 5 5 5 5 6 6 6 6 5 5 4 4 4 4 3 3 3 4 4 5 6 6 6 7 8 9 10 9 8 9 10 12 13 13 14 14 14 15 15 15 14 11 11 11 9 10 10 10
21 20 19 20 21 22 22 22 21 21 20 19 18 16 15 15 14 13 11 11 11 11 11 11 11 10 9 8 7 7 7 7 7 7 7 7 6 5 5 4 4 4 5 4 4 4 4 4 3 3 3 2 2 2 2 2 2 2 2 2 2 3 4 7 9 9 10 9 11 14 15 15 14 14 17 16 14 13 12 11 11 11 11 12 11
14 14 12 12 14 16 19 20 19 19 19 18 17 15 14 14 14 13 12 11 11 11 11 11 10 9 8 7 6 6 7 8 8 7 7 7 7 5 4 4 4 4 4 3 3 3 3 3 3 3 3 2 1 1 1 2 2 2 2 2 2 2 2 4 7 9 9 8 9 12 14 16 15 13 16 18 15 13 13 12 11 12 12 12 12
7 10 11 10 11 13 16 17 17 17 17 16 15 13 12 12 11 11 11 11 11 11 10 8 8 8 8 7 6 6 7 8 8 7 7 7 6 5 4 5 6 6 5 3 3 3 3 3 3 3 3 2 1 1 0 0 1 1 2 2 2 2 1 3 6 8 8 8 9 9 11 14 15 13 14 17 16 15 16 14 13 14 15 15 14
9 11 12 12 13 14 15 16 17 16 16 15 14 13 12 11 10 9 8 9 10 10 9 7 6 7 8 7 6 6 6 7 7 7 6 6 6 5 4 5 6 7 6 5 5 5 5 5 5 4 3 2 2 2 1 1 1 1 1 2 2 2 2 4 6 7 8 8 9 9 10 12 14 14 15 19 19 16 17 17 13 13 15 15 15
12 13 12 11 14 16 18 19 18 17 17 17 16 15 14 11 10 7 5 6 8 7 7 6 5 5 6 6 7 6 6 6 6 6 7 7 6 6 6 6 6 7 8 8 7 7 7 7 7 6 5 5 4 4 4 3 3 2 2 2 3 3 3 5 7 7 8 9 9 10 11 12 15 17 19 23 23 19 19 19 15 14 15 12 11
14 13 13 13 15 17 18 18 17 15 15 14 14 13 9 6 8 7 3 4 6 3 2 4 4 4 4 5 6 7 7 8 8 8 9 8 8 8 8 8 8 9 10 10 9 8 8 8 8 7 7 7 7 7 7 7 6 6 6 5 5 5 6 6 7 8 9 9 9 10 12 13 15 19 21 23 25 23 22 21 18 17 17 14 11
18 16 15 15 15 15 15 15 13 11 10 8 8 10 12 10 9 9 5 4 5 1 1 2 3 4 6 6 7 8 9 10 11 11 11 10 11 11 11 11 11 11 11 11 11 10 9 9 9 9 9 10 10 10 10 10 10 10 9 9 8 8 9 9 9 10 10 10 9 10 12 13 14 18 22 23 25 25 23 22 23 22 20 17 14
21 19 17 16 16 15 14 14 13 12 11 10 10 12 13 11 8 8 7 6 6 3 0 2 3 4 6 6 6 7 8 10 11 11 12 13 13 14 15 14 14 14 14 14 14 13 13 12 12 12 12 12 13 13 13 13 13 13 13 13 12 12 12 13 13 13 13 12 11 11 13 14 13 16 21 24 26 27 24 23 24 22 18 16 14
25 23 22 20 19 17 16 16 17 17 16 16 16 14 12 11 10 10 10 9 8 6 4 3 4 4 4 4 4 5 5 6 8 9 10 11 12 13 14 15 16 16 17 17 17 17 16 16 16 16 15 15 15 15 15 15 15 15 15 16 16 16 16 17 17 17 17 17 16 15 16 19 18 18 20 22 24 27 26 23 22 21 17 14 14
29 27 26 24 22 21 21 21 21 20 19 18 17 16 14 13 13 12 12 11 11 10 8 7 7 6 6 6 5 4 2 2 4 6 7 7 8 9 10 11 12 13 15 15 16 16 15 15 15 15 15 15 15 14 14 14 15 15 16 17 18 18 18 19 20 20 21 21 21 21 22 23 24 23 23 22 21 24 26 24 24 23 20 15 13
31 30 29 27 25 25 25 25 24 22 20 20 19 18 16 15 14 14 14 14 14 13 11 10 10 10 9 9 7 6 4 2 1 3 5 6 7 8 8 9 10 11 12 12 12 12 12 12 12 13 14 14 14 14 14 14 14 15 15 17 17 18 18 19 20 21 23 24 24 25 25 25 25 25 25 24 22 23 26 23 21 21 17 10 6
29 30 30 28 27 26 26 26 25 23 22 22 21 20 19 18 18 17 17 16 15 15 14 14 13 13 13 12 11 10 9 8 5 3 3 4 6 7 9 9 10 11 11 12 12 13 13 13 13 13 14 14 14 13 12 12 13 13 14 15 16 17 18 19 20 21 22 24 25 26 26 26 25 23 23 23 21 23 24 21 19 18 14 7 4
27 28 27 26 26 26 25 25 25 24 23 22 21 19 18 17 17 16 16 16 16 15 14 12 12 11 11 11 10 11 11 11 9 7 6 4 4 5 6 7 8 10 10 11 12 12 13 14 13 13 13 13 13 12 12 12 11 11 12 12 14 16 18 20 20 20 21 22 23 24 24 23 22 21 20 19 19 21 22 19 17 15 12 7 6
26 26 25 24 23 23 23 23 23 22 22 21 20 18 17 16 14 13 13 13 13 12 10 9 9 9 8 7 6 6 8 10 9 8 7 7 6 6 6 6 7 8 9 11 11 12 12 13 13 13 13 13 14 14 14 13 11 10 10 11 13 15 17 19 19 19 20 19 18 19 19 18 17 17 16 17 18 18 17 15 13 13 13 11 11
24 23 22 22 21 20 20 20 19 19 18 17 16 15 14 13 12 11 11 11 10 9 9 8 8 7 6 5 4 4 4 6 8 8 8 8 8 8 8 8 9 9 10 12 12 13 14 13 12 13 14 14 15 15 14 14 13 11 10 12 14 14 15 17 18 17 17 16 15 15 15 15 15 16 17 19 18 16 14 12 11 12 13 13 15
22 21 21 21 21 20 19 19 18 17 15 13 12 12 11 10 9 8 9 8 7 7 7 7 7 7 6 5 5 4 3 3 5 6 7 8 8 8 9 9 10 11 12 13 13 13 14 11 9 12 15 16 16 16 16 15 14 14 15 15 16 15 15 16 16 15 16 17 16 17 17 18 19 19 19 18 16 14 12 11 10 12 12 12 13
21 21 21 21 20 20 19 18 18 17 15 14 13 13 11 10 9 8 7 6 6 6 5 5 5 5 5 4 4 3 4 4 5 6 7 7 8 8 8 9 10 11 12 13 13 12 12 11 11 14 17 17 17 18 19 18 17 17 18 17 16 16 15 15 15 15 17 19 19 20 21 22 21 20 18 15 12 11 11 12 12 12 11 10 9
20 21 20 20 19 18 17 17 16 16 14 13 13 13 12 11 10 9 9 8 7 7 7 7 6 6 5 5 4 4 5 5 6 8 8 8 8 8 8 9 10 10 11 13 13 13 14 14 15 17 18 17 17 18 19 19 19 19 17 15 15 16 16 16 16 17 20 22 22 22 23 23 22 20 17 14 12 12 13 13 12 11 10 9 8
19 19 19 18 17 16 16 15 14 13 12 12 11 11 10 10 10 9 9 9 8 8 8 9 9 9 9 9 9 9 8 8 8 9 9 9 9 9 9 9 10 10 11 12 13 14 14 15 15 16 17 17 17 17 18 18 17 16 14 14 15 16 16 17 17 18 21 23 24 24 25 24 23 21 18 17 17 17 15 14 13 11 9 7 5
18 18 17 16 15 15 15 14 14 13 12 11 11 10 10 9 8 8 8 8 7 7 7 8 8 9 9 10 11 13 12 11 10 11 10 10 10 10 10 11 11 12 11 12 12 13 13 13 13 13 14 15 15 15 16 16 16 15 14 14 15 16 17 17 18 20 23 25 25 26 26 25 22 20 20 19 19 18 16 14 12 9 6 4 2
17 16 15 15 15 15 15 15 15 15 14 12 11 11 10 9 8 7 7 7 7 7 7 8 8 8 8 9 10 13 14 13 13 13 12 12 11 11 11 11 12 13 13 14 14 14 13 12 12 11 11 12 13 14 16 16 17 17 16 14 15 16 15 15 19 21 22 24 26 28 28 25 21 20 20 21 20 18 15 12 10 7 4 3 2
15 14 14 14 15 15 15 14 13 13 13 11 10 9 9 8 8 7 7 6 6 6 6 6 7 7 7 8 9 11 12 12 11 12 13 14 15 16 16 15 15 15 16 17 17 17 16 15 13 12 12 12 13 15 16 17 17 15 15 15 15 15 14 15 18 21 22 25 29 30 28 24 22 23 23 22 20 17 13 10 8 6 4 3 3
13 14 14 14 14 14 14 14 12 12 12 11 9 8 8 7 7 7 6 5 4 4 4 4 5 6 6 7 8 9 9 9 9 12 15 16 16 18 18 17 17 17 18 19 20 20 19 17 14 13 14 15 15 15 16 16 14 10 10 12 13 15 17 18 21 23 25 27 29 28 26 25 25 25 24 21 18 16 13 9 7 5 4 3 2
11 12 12 12 12 11 12 12 12 11 11 10 10 9 9 8 8 7 6 5 3 3 3 3 4 5 6 6 7 8 9 9 11 14 16 15 15 16 16 16 17 17 18 19 21 21 20 17 14 12 13 14 14 13 13 13 11 8 7 9 10 12 15 20 23 25 25 27 27 25 25 27 27 25 22 19 17 15 12 8 6 6 5 3 2
9 9 9 9 9 9 9 10 12 12 11 10 10 10 11 12 11 9 7 6 5 4 3 3 3 4 5 6 6 7 9 11 13 14 14 13 13 13 14 14 15 16 17 18 19 19 18 16 13 12 11 12 12 12 11 10 10 8 8 9 10 11 15 20 23 23 24 25 24 25 27 29 27 24 21 19 16 13 9 7 7 7 5 4 3
8 8 8 9 10 10 10 11 13 14 13 14 13 11 10 12 13 13 11 9 8 7 5 3 3 3 4 6 7 8 9 12 13 13 14 13 13 13 13 13 14 14 16 17 18 16 14 12 11 11 11 11 12 12 11 10 9 8 9 10 10 11 15 20 22 23 24 25 26 28 28 27 26 23 20 16 13 12 10 9 8 7 5 3 2
10 9 9 9 11 12 12 13 14 14 14 14 13 12 10 9 11 13 13 12 11 9 7 6 5 4 4 6 8 9 11 12 12 13 13 14 14 14 14 14 15 15 15 16 16 14 12 11 10 10 10 10 10 10 10 10 10 9 10 11 10 11 16 20 23 24 25 26 28 27 25 24 24 22 18 15 13 13 12 10 8 6 4 3 2
9 8 7 8 10 11 11 12 13 13 12 11 11 11 10 9 8 10 12 13 13 12 10 8 8 8 7 8 9 9 10 11 11 12 13 14 14 15 15 16 17 16 15 14 12 11 11 10 10 10 9 9 10 11 11 12 12 11 10 10 10 13 18 22 24 25 24 24 24 25 25 25 23 20 17 15 14 12 11 9 7 6 5 4 3
8 7 6 7 8 9 9 10 11 11 11 10 10 9 9 10 9 8 9 10 11 12 11 11 11 11 11 11 10 10 10 10 10 11 13 14 15 15 14 14 14 14 12 9 8 9 10 9 9 10 9 10 12 13 13 15 16 14 11 10 13 17 22 25 26 27 25 24 25 26 26 23 20 18 17 16 14 11 9 8 6 5 4 4 3
7 6 6 6 7 7 8 9 10 11 10 9 8 8 8 9 9 8 8 8 8 9 9 11 13 16 18 18 17 15 13 11 11 11 12 13 15 15 13 11 10 9 8 7 7 8 9 9 9 9 8 9 12 13 12 14 15 14 13 13 16 22 26 28 28 26 25 26 26 25 22 20 18 17 16 15 13 11 9 7 6 5 4 3 2
5 5 4 5 6 6 6 7 9 10 10 9 8 8 9 9 10 9 9 9 8 8 9 11 14 18 21 22 20 19 16 14 12 11 11 12 14 15 14 12 11 10 9 8 8 8 8 9 9 9 7 9 12 12 11 12 13 14 15 15 18 24 27 29 27 26 25 25 24 21 20 18 16 14 14 14 13 11 9 7 6 5 4 3 2
4 3 3 3 3 3 4 6 8 10 12 11 9 8 9 11 12 11 9 10 11 10 10 12 15 17 20 23 22 20 18 16 16 15 15 14 15 14 13 12 11 10 10 11 10 10 9 9 8 8 8 8 8 8 9 11 11 12 13 14 18 23 25 26 26 25 24 23 20 19 18 17 15 14 13 13 11 9 7 7 6 5 4 3 2
4 4 3 2 2 2 3 4 6 10 12 11 9 9 10 11 12 12 10 12 13 11 9 11 12 14 18 22 23 21 20 20 20 21 20 18 16 14 12 12 12 11 10 10 10 10 9 9 9 8 7 7 6 5 6 8 9 11 13 17 20 20 21 23 23 22 21 20 19 18 17 15 14 12 11 10 9 8 7 7 5 5 4 3 1
4 5 4 2 2 2 3 3 5 9 12 10 9 10 11 12 13 12 12 13 13 11 9 9 10 12 16 20 23 24 24 22 21 20 19 17 14 13 12 12 13 14 14 12 11 10 10 10 11 9 7 6 5 4 4 6 10 13 18 21 22 20 19 20 20 19 19 19 19 17 15 14 13 11 9 9 9 8 8 6 5 4 4 3 2
4 5 5 3 2 3 4 4 5 8 11 10 9 10 11 12 13 13 12 13 14 13 11 9 10 12 15 19 22 24 23 19 17 15 15 14 13 13 13 13 14 15 16 15 14 13 12 12 11 9 6 4 3 1 5 9 13 17 21 23 23 21 19 16 15 15 17 18 18 16 14 13 13 12 10 9 9 9 7 6 4 4 4 3 2
5 6 6 5 4 4 4 4 5 8 9 9 9 10 10 11 12 13 13 13 14 13 12 10 10 12 15 18 21 22 19 15 14 13 13 13 13 13 13 13 13 15 15 14 13 12 12 10 9 7 5 3 1 2 6 11 17 22 24 23 21 19 16 13 12 13 15 16 15 13 13 13 13 11 10 9 9 7 6 4 4 4 3 3 2
5 6 5 5 5 4 4 4 5 7 7 7 9 10 8 8 10 13 13 13 13 12 12 11 11 13 15 18 21 20 16 13 13 13 13 13 13 13 13 13 13 13 13 12 11 11 10 9 7 5 4 4 3 5 10 16 21 22 20 18 16 15 14 13 13 13 14 13 11 11 13 14 13 10 9 9 7 6 4 4 4 4 3 3 2
4 5 5 5 5 5 5 4 5 6 5 7 10 10 8 7 9 11 13 14 14 13 12 11 11 13 14 16 18 17 15 13 13 13 13 13 13 13 13 13 13 12 12 13 12 11 10 9 8 8 7 7 7 10 13 16 17 16 15 14 14 14 13 13 13 13 12 10 10 10 12 12 11 9 8 8 6 5 4 4 4 4 3 3 2
3 5 5 5 5 5 5 5 5 5 5 6 9 10 9 9 9 11 12 13 13 13 11 10 11 11 12 12 13 14 13 12 13 13 12 12 13 13 13 14 15 15 16 17 17 15 14 13 12 12 12 11 11 12 14 15 14 14 15 15 14 13 12 12 11 10 8 7 8 10 12 11 9 8 7 7 5 4 4 4 4 4 3 3 2
2 4 4 4 4 4 4 5 6 6 4 5 7 9 9 8 9 9 10 11 12 11 11 11 12 12 12 11 10 11 11 12 13 13 12 12 13 15 16 17 18 19 20 21 20 20 19 18 16 15 16 16 15 15 16 16 15 14 14 13 13 12 12 11 8 7 6 6 7 9 11 10 8 6 6 6 4 4 4 4 3 3 2 3 2
2 3 4 4 4 4 3 4 5 5 3 4 6 7 7 7 7 8 9 10 10 10 10 11 12 13 12 11 10 10 9 10 12 13 13 14 16 18 18 19 20 21 22 23 23 23 22 21 20 19 18 17 16 15 15 14 13 12 11 11 10 10 9 7 6 6 6 6 6 8 9 9 7 5 5 5 4 4 4 4 3 2 1 1 2
3 3 3 4 4 4 3 3 4 4 4 4 6 7 6 7 7 8 8 9 9 9 9 9 10 11 12 12 12 11 10 10 10 11 13 15 18 19 19 19 20 20 21 21 22 22 22 22 22 21 19 17 16 15 14 13 12 11 10 9 8 8 7 6 6 7 7 6 7 8 8 7 5 3 4 4 3 3 2 2 2 2 1 1 1
5 3 3 3 4 3 2 2 3 3 4 3 5 6 7 7 7 7 6 7 7 8 8 8 9 9 9 10 11 11 12 11 11 11 12 14 16 16 16 17 17 17 18 18 19 19 20 20 20 19 18 16 15 14 13 13 12 10 9 8 7 7 6 6 7 8 8 8 8 7 6 4 3 2 2 2 2 1 1 1 1 2 2 2 2
6 5 4 4 4 3 3 2 1 2 3 3 3 4 5 6 6 6 5 5 6 7 7 7 8 8 8 8 9 10 11 12 13 13 14 14 15 14 14 15 15 15 15 16 16 16 16 16 17 16 15 15 14 13 13 13 12 11 10 10 8 8 7 7 8 9 9 9 7 6 4 2 2 2 2 2 1 0 1 1 1 2 3 2 1
7 6 6 5 5 4 3 2 1 2 2 3 3 4 4 5 5 5 5 4 5 6 6 6 6 7 7 8 8 8 9 10 11 12 12 12 12 12 12 13 13 13 14 14 14 14 14 13 14 14 14 14 14 13 13 13 13 12 11 11 10 10 10 10 10 10 9 8 6 4 2 1 2 2 2 1 0 0 1 1 2 2 3 3 3
7 8 8 7 6 5 4 3 2 2 2 3 3 4 5 4 4 4 4 4 4 4 5 5 5 6 7 8 7 8 8 9 9 10 11 11 10 10 10 11 11 12 12 12 11 12 12 12 12 12 12 12 13 13 13 13 13 13 12 12 12 11 11 10 9 8 7 5 4 3 2 2 3 3 2 1 1 1 2 3 3 4 4 3 3
Wind_Direction
178 178 183 191 193 192 193 191 188 186 186 185 181 175 171 169 167 166 167 175 178 172 166 164 168 170 165 157 149 143 147 152 151 148 150 150 141 133 127 118 112 105 92 80 84 111 131 134 134 137 142 150 160 167 175 183 186 185 181 174 147 148 160 134 117 143 164 172 162 168 178 178 178 179 177 175 173 167 163 162 158 153 152 152 155
180 181 182 186 189 190 191 190 189 187 186 184 179 174 172 171 168 163 163 171 176 175 169 167 169 167 163 158 151 145 147 155 159 157 156 155 148 138 131 122 128 130 112 88 81 95 123 135 136 136 141 150 158 166 176 186 192 197 202 206 195 173 176 175 136 150 164 174 172 174 181 184 184 187 186 183 183 180 176 176 172 169 170 164 165
180 181 181 182 185 186 187 187 187 186 184 182 179 175 175 174 171 168 166 168 172 173 170 169 168 165 160 156 153 153 153 157 164 167 163 159 153 143 131 125 126 131 121 101 85 80 98 124 134 136 143 156 167 177 187 195 203 213 226 235 239 231 214 199 190 176 167 172 181 182 185 189 191 192 192 192 191 188 186 188 184 184 187 179 180
180 181 180 180 182 182 183 184 184 184 183 180 177 176 179 178 175 174 170 168 171 171 170 171 172 166 159 155 157 163 165 163 167 173 175 170 158 144 135 125 117 116 115 109 99 85 82 96 111 123 136 158 177 190 201 212 223 228 237 246 251 255 246 225 210 199 183 179 184 188 190 193 196 195 194 197 199 197 197 198 193 193 194 186 190
184 184 182 182 181 181 183 182 182 184 181 176 176 179 183 183 182 181 176 171 170 170 169 174 176 169 160 155 158 167 173 173 172 172 178 181 171 151 141 133 123 120 117 111 108 103 99 98 98 106 118 145 175 198 215 228 238 237 242 248 247 258 258 237 216 207 204 193 186 189 191 193 198 201 199 199 202 204 207 208 203 198 195 189 193
183 184 184 181 179 180 180 180 182 182 178 175 177 182 186 188 187 185 182 176 170 169 169 172 176 172 162 155 157 165 171 171 168 164 168 175 172 159 150 144 139 138 131 116 107 104 112 124 129 135 142 160 190 234 255 264 280 264 269 281 260 273 268 234 213 210 216 208 191 191 194 195 198 203 205 204 203 203 203 204 204 202 199 195 193
174 172 170 168 171 175 175 177 180 178 175 175 179 183 186 188 190 188 184 177 170 167 168 171 177 176 166 160 163 167 167 165 164 162 165 170 170 168 173 175 168 160 152 142 131 112 113 133 147 156 158 157 168 281 296 293 310 322 340 356 346 339 301 223 207 206 215 215 202 196 198 199 199 203 208 207 206 208 205 197 195 195 196 195 191
148 155 167 174 179 177 171 169 170 167 167 168 169 173 174 175 180 180 177 177 174 169 168 174 181 179 169 167 172 176 174 172 171 170 174 178 180 184 193 195 192 187 183 183 182 179 179 179 173 171 167 155 147 132 360 285 302 326 337 348 347 334 277 221 212 212 217 221 217 209 203 202 202 203 205 205 207 213 211 203 195 193 194 196 194
134 144 159 168 170 167 157 150 149 148 147 148 150 152 152 155 159 154 155 167 171 171 173 173 176 177 172 172 180 184 182 183 184 185 188 195 202 211 215 214 215 215 214 217 217 215 217 218 216 213 212 213 222 234 244 256 263 290 316 331 329 296 247 221 217 219 225 229 227 218 211 209 206 201 202 207 210 211 209 206 199 192 192 193 198
123 127 133 138 148 149 141 136 135 133 133 136 133 125 121 129 147 145 127 142 156 166 178 177 172 175 181 188 197 201 203 204 206 207 208 215 224 232 238 239 236 235 234 235 236 232 231 232 233 237 243 251 259 263 268 277 279 280 293 302 296 279 255 229 220 221 227 232 233 224 219 219 214 209 212 216 216 214 212 208 197 189 190 187 195
105 107 114 122 133 139 140 139 137 131 132 133 127 126 129 140 159 166 148 135 146 138 164 189 188 194 203 207 207 211 221 227 228 230 230 231 236 241 248 253 250 248 248 249 250 247 242 243 246 249 255 261 268 272 277 280 281 283 285 282 273 265 257 246 236 233 232 233 233 227 226 230 226 221 222 223 222 223 220 213 200 192 194 195 199
102 101 103 110 118 129 138 142 140 134 134 134 138 167 194 202 188 185 191 193 182 136 8 262 239 239 239 236 228 228 236 240 242 245 245 244 245 247 252 257 260 263 264 264 266 266 262 260 259 260 261 264 267 270 273 276 275 276 275 272 268 262 256 253 250 248 247 244 242 236 235 239 236 232 232 232 230 229 223 215 209 202 200 205 205
99 99 102 108 115 124 132 135 133 128 130 137 147 168 184 185 177 172 167 171 171 155 257 273 255 244 242 240 237 236 242 246 248 250 251 251 252 253 255 259 261 264 267 269 271 271 272 272 270 269 269 268 269 270 271 272 271 270 269 266 263 262 260 256 254 254 254 252 251 250 251 253 249 246 249 246 238 231 222 214 212 208 205 209 206
93 94 97 104 112 121 125 123 119 117 120 129 137 145 151 146 143 144 141 137 131 127 137 150 154 172 182 179 187 201 215 230 237 241 246 249 251 252 255 258 260 261 263 265 267 269 271 273 273 273 272 271 270 271 270 270 269 268 268 266 263 263 264 261 259 259 259 258 257 258 265 268 264 262 266 260 246 235 226 216 211 206 204 210 209
90 91 92 95 103 111 114 115 113 112 115 120 123 125 124 122 123 126 126 120 115 118 122 119 119 120 118 125 135 138 154 206 224 230 235 241 245 247 249 252 255 258 259 261 264 268 270 272 273 274 274 274 273 273 273 273 275 274 273 271 268 268 267 264 264 264 265 266 266 266 270 273 272 269 268 264 253 241 231 223 215 207 203 206 209
84 86 87 87 91 98 103 108 109 109 110 110 108 105 105 105 106 108 111 110 107 107 105 100 99 98 95 97 97 84 65 37 304 257 252 253 254 255 256 256 257 258 260 261 263 266 269 273 275 276 277 278 278 279 280 280 281 281 279 276 275 273 270 266 265 265 265 266 268 269 271 272 273 271 266 261 252 240 231 222 211 201 193 188 193
79 81 83 84 87 90 93 97 100 101 102 101 97 94 95 95 93 94 100 103 101 98 94 89 87 88 87 84 76 64 51 39 27 3 320 288 276 272 270 271 273 273 273 273 271 271 270 270 273 276 278 281 283 284 285 285 284 282 278 276 276 274 271 269 266 263 263 263 263 265 267 268 269 267 263 258 247 233 220 203 186 180 173 159 168
75 78 81 82 85 88 89 90 92 93 93 92 91 90 90 89 86 87 90 93 93 92 91 87 81 77 77 74 65 52 41 32 27 24 16 358 336 314 296 290 287 284 283 282 279 277 275 271 270 273 275 280 283 283 284 284 280 275 270 268 268 267 270 272 269 264 263 261 259 260 261 261 260 258 253 244 230 218 205 185 171 172 174 179 197
75 78 81 82 83 84 85 85 87 88 88 88 88 88 88 86 86 85 85 87 87 84 83 82 73 65 61 56 47 34 23 14 11 14 13 8 1 351 336 321 307 296 290 285 280 277 275 272 271 272 273 276 277 277 280 280 274 268 265 264 263 262 267 273 272 265 261 258 254 252 250 246 242 238 227 211 203 200 195 188 184 184 185 195 202
78 79 80 81 81 80 80 80 82 83 83 84 85 86 86 85 84 83 83 86 88 88 87 86 80 73 65 54 40 24 3 352 352 354 354 353 351 346 341 333 322 313 305 298 292 287 281 278 275 271 267 266 268 271 275 277 276 273 265 259 259 260 266 275 276 264 253 248 243 235 227 215 207 200 191 186 188 191 193 195 191 184 186 199 204
81 79 78 77 77 77 77 77 77 77 77 78 80 80 80 77 74 72 71 74 79 82 83 83 82 81 77 70 62 54 31 356 349 345 340 339 337 334 333 328 317 310 305 301 300 296 290 288 282 272 268 266 268 270 272 275 278 274 266 259 259 259 260 270 274 261 244 236 227 216 204 194 189 186 183 184 187 188 190 191 186 186 194 204 204
83 81 79 77 75 74 74 74 74 74 72 72 73 71 68 66 65 63 60 59 60 58 59 65 71 72 69 66 57 35 12 355 344 336 331 330 329 329 331 326 317 310 304 300 298 294 291 288 281 276 276 276 275 274 275 278 277 274 271 267 262 257 253 257 260 250 233 223 212 202 194 188 185 183 182 184 187 187 188 190 190 192 194 193 191
84 82 80 79 76 74 72 69 69 69 66 65 65 63 59 56 54 51 48 45 44 41 37 34 34 36 35 32 21 4 354 346 333 324 321 320 319 321 324 324 323 323 317 309 304 298 294 292 287 283 282 282 279 277 276 278 278 278 278 272 260 250 244 243 244 236 223 214 206 199 193 189 186 184 182 184 187 187 184 181 182 185 186 185 187
82 80 79 78 74 72 69 66 64 63 60 59 58 56 52 49 44 40 37 35 33 30 25 20 17 14 10 5 0 354 350 346 336 328 324 321 319 317 316 316 318 320 321 317 311 305 299 296 294 290 286 284 282 280 279 279 281 282 282 274 258 246 237 234 231 224 216 209 204 199 196 192 187 186 186 183 181 179 175 169 165 167 172 177 185
82 81 79 75 72 69 66 62 60 57 55 54 53 49 46 43 40 35 33 32 30 26 21 18 14 9 3 357 351 346 345 343 339 331 324 319 315 311 308 306 306 308 312 315 314 309 301 294 290 289 288 288 288 289 288 288 287 287 283 270 252 239 231 223 218 213 209 206 203 198 194 190 188 189 188 181 173 168 164 160 156 156 159 160 165
85 83 78 76 74 72 67 62 58 54 50 49 48 44 42 40 37 32 29 28 28 23 18 14 9 3 358 351 344 342 344 346 346 341 335 328 323 318 312 307 304 304 305 307 311 313 310 301 290 285 285 289 293 296 296 294 293 289 283 269 248 236 226 215 210 207 205 204 202 195 190 189 190 188 180 171 163 158 156 153 149 147 147 134 114
89 84 80 80 78 73 68 64 58 52 49 48 45 41 39 37 35 33 29 26 24 18 10 5 2 358 351 344 336 334 335 339 344 345 341 336 332 330 328 323 317 313 310 309 311 314 316 312 303 295 294 295 298 299 298 298 297 291 281 269 251 236 228 220 213 211 210 207 200 192 187 186 183 175 169 163 157 153 154 154 151 149 142 128 127
81 77 78 82 79 72 66 63 58 53 50 50 48 45 43 43 44 43 38 31 22 13 5 1 358 353 343 334 330 327 325 326 331 333 332 330 326 326 327 327 325 322 319 316 314 314 317 317 309 300 300 301 301 300 298 297 296 287 273 263 250 237 232 226 219 218 217 208 195 186 180 176 170 165 162 159 155 152 153 154 158 158 150 140 154
75 73 77 80 77 67 60 58 57 55 53 52 55 55 52 54 57 53 42 34 27 10 359 359 353 342 333 328 326 322 315 313 320 326 328 326 322 319 319 319 319 319 318 316 314 315 318 320 312 298 295 298 299 296 292 288 285 275 259 250 242 235 228 221 215 212 205 194 182 173 166 162 159 159 157 154 152 152 152 154 163 171 165 165 188
80 74 76 78 69 57 49 48 49 47 46 47 51 55 55 55 58 58 50 45 51 50 31 15 2 342 328 319 313 310 312 318 325 331 333 332 328 325 322 320 319 316 314 314 314 316 318 317 310 297 290 292 294 290 285 281 275 267 258 249 237 226 219 213 208 200 191 182 176 169 163 159 157 156 157 154 151 152 157 164 171 173 173 183 204
67 64 68 68 57 46 41 42 44 43 42 41 41 41 43 46 50 55 57 55 57 61 57 41 17 341 321 318 316 317 326 333 337 339 339 336 335 332 328 326 323 319 315 314 313 311 308 305 302 296 289 288 290 289 286 282 273 262 254 245 230 215 207 202 196 190 182 174 169 166 163 161 158 157 158 158 158 162 169 172 172 174 179 195 218
53 56 61 59 50 46 47 49 47 43 39 37 35 31 30 34 39 46 53 59 59 56 49 39 30 19 359 345 335 331 334 339 340 339 337 333 331 329 326 324 322 318 315 315 310 303 296 292 291 291 288 287 291 292 288 281 274 261 245 230 211 199 198 195 190 184 176 167 163 162 162 162 161 161 162 165 167 168 170 171 174 179 188 199 212
55 62 66 57 49 52 58 57 49 42 36 33 32 30 30 34 31 29 37 49 56 55 53 51 46 40 30 14 357 347 343 341 339 337 335 331 326 322 317 315 314 313 313 311 304 296 293 292 292 293 292 293 298 299 292 282 271 256 238 218 197 191 192 189 182 174 168 165 166 167 167 167 165 163 164 167 168 168 169 173 178 185 195 205 207
61 69 71 61 55 62 68 61 50 42 37 35 35 34 36 37 33 23 19 28 38 45 50 54 54 49 41 32 23 15 8 3 359 357 355 351 345 337 327 317 314 317 318 313 303 297 296 296 299 302 301 301 303 302 295 284 271 253 233 218 204 193 184 178 173 169 167 169 171 170 170 169 167 163 164 168 171 172 169 173 181 189 199 206 203
62 69 71 66 67 75 77 64 51 44 38 35 37 40 39 34 31 30 27 23 24 29 41 52 54 49 44 41 37 33 30 25 18 13 10 7 6 5 3 354 345 342 339 328 315 309 306 302 303 305 302 302 303 301 293 283 269 250 230 215 201 186 174 169 168 167 167 169 170 169 167 166 165 165 166 171 175 174 168 171 182 188 186 184 180
62 66 68 65 71 82 82 67 56 46 38 36 39 41 37 33 34 39 38 34 31 29 36 48 50 44 40 39 37 34 36 38 33 24 18 14 16 22 25 19 11 5 357 347 333 321 314 310 306 304 305 306 306 301 290 277 262 244 230 212 188 174 168 165 163 161 163 165 165 163 162 162 162 164 168 172 174 173 167 168 173 169 161 159 151
59 62 65 56 61 79 81 70 59 45 36 35 37 37 34 36 43 48 46 43 45 43 38 40 42 37 34 33 31 30 33 38 38 36 33 30 30 33 32 25 17 10 2 357 349 337 327 321 314 309 309 310 308 299 284 268 249 233 224 201 175 165 163 161 157 156 157 159 158 158 158 158 158 163 167 166 164 163 161 159 154 146 143 143 133
43 42 50 48 53 73 85 80 62 43 32 29 32 35 37 41 48 53 51 48 50 50 39 34 34 29 25 26 30 34 37 39 39 37 35 33 32 30 28 25 22 15 6 359 351 343 337 332 326 321 315 308 299 286 271 252 227 207 192 175 164 159 158 155 153 152 150 149 151 153 153 152 154 159 162 158 153 151 150 147 143 144 145 137 111
34 25 25 31 54 71 81 89 67 40 27 23 27 35 40 45 50 52 52 50 49 46 39 35 32 25 24 28 36 40 40 37 34 31 27 26 25 23 21 21 19 16 12 6 359 354 349 344 337 330 320 311 305 285 240 209 192 178 167 159 154 151 147 143 142 141 142 144 148 151 151 152 154 152 148 146 144 141 140 139 138 145 148 134 93
25 19 23 35 56 56 60 78 65 36 22 20 27 35 40 46 50 52 53 51 47 44 42 40 34 31 35 40 44 43 40 34 28 24 22 22 21 20 19 17 14 14 13 11 8 5 1 358 355 346 334 330 330 255 193 180 167 158 152 148 144 138 134 132 134 138 142 145 147 149 151 151 148 140 136 138 139 139 140 137 129 129 132 117 83
24 24 34 48 63 62 64 74 60 36 23 22 31 39 43 47 50 54 55 52 48 47 48 48 46 47 49 48 45 43 41 35 29 26 27 25 22 20 18 16 13 13 13 12 12 9 7 9 10 4 358 8 25 182 178 166 155 147 145 144 142 138 137 139 143 145 145 145 145 145 144 142 138 133 132 135 137 138 137 129 118 120 124 111 82
27 35 49 61 68 69 73 72 55 39 30 31 40 46 48 50 53 56 57 55 53 53 54 56 62 63 56 47 42 42 41 37 32 31 30 28 26 25 24 20 18 17 15 14 16 15 15 20 26 30 42 68 104 143 153 152 150 147 147 149 150 148 149 149 148 146 144 141 138 138 138 138 136 132 133 136 136 133 131 127 122 120 116 105 84
31 43 62 76 77 74 74 68 54 45 38 38 44 50 55 56 57 58 57 55 56 58 60 65 71 68 56 46 44 45 42 37 34 34 33 31 31 30 29 28 28 27 26 27 30 31 34 44 55 65 79 98 119 135 142 144 145 145 146 147 146 145 144 142 139 138 136 130 127 132 137 137 133 131 134 137 136 132 130 128 128 121 105 89 81
42 48 68 84 84 79 74 64 61 67 59 40 41 52 61 60 58 59 57 55 55 57 61 66 68 62 50 43 44 47 45 40 38 38 36 35 36 36 38 41 45 47 47 47 48 50 54 62 71 81 91 103 117 130 134 135 133 133 135 137 137 135 133 131 130 130 126 121 128 139 143 140 133 131 136 136 130 128 130 127 125 115 88 62 56
73 62 83 98 94 85 75 64 73 92 85 42 40 56 65 62 59 59 58 57 57 59 62 63 61 56 51 47 46 49 50 48 44 43 42 41 44 47 49 53 55 57 58 58 58 59 61 63 69 80 92 102 111 118 123 125 126 127 129 131 132 131 131 131 132 129 122 123 136 145 148 145 141 143 147 142 124 112 120 125 123 110 74 50 48
136 91 99 112 111 100 79 66 78 98 93 47 49 64 67 63 62 61 58 57 59 60 61 61 58 55 55 55 53 53 53 52 52 52 53 56 58 59 60 61 62 62 62 62 63 63 64 64 66 71 80 89 97 102 107 111 114 115 116 119 124 128 131 133 131 125 124 130 139 144 147 149 153 161 165 156 129 103 106 114 111 87 44 38 43
169 129 118 124 124 115 91 70 83 106 106 72 64 71 74 69 67 64 57 54 56 58 59 59 57 56 57 59 59 58 58 57 57 58 60 63 65 65 64 64 65 65 64 64 64 64 65 65 66 67 70 74 79 82 85 88 91 95 99 106 116 125 133 136 131 127 128 132 136 140 146 152 158 169 178 174 159 128 108 98 71 44 5 305 340
187 167 146 141 137 132 123 87 84 108 121 100 74 74 78 76 71 69 63 55 54 57 58 57 56 56 56 57 59 61 63 64 63 61 62 65 66 64 62 62 63 64 64 64 64 64 65 67 68 68 70 72 74 75 76 78 83 88 96 106 115 125 133 136 136 134 132 132 136 143 148 146 139 132 137 158 177 191 268 294 323 357 346 312 301
201 192 177 167 156 147 146 137 103 110 128 122 92 81 84 81 76 75 71 62 60 63 62 60 60 59 58 58 59 62 66 69 68 66 64 64 64 62 60 60 61 62 63 63 64 64 66 68 70 72 75 78 82 85 87 90 93 97 101 105 110 114 119 126 132 134 134 135 138 141 138 121 97 83 83 99 149 212 313 310 312 347 357 352 340
214 206 199 189 177 163 153 149 146 134 132 133 128 122 117 107 93 85 80 72 70 72 70 67 64 61 62 64 65 66 68 69 67 65 64 62 61 59 57 57 58 59 58 58 60 63 66 68 70 72 77 82 87 89 90 90 92 95 98 102 106 108 111 115 120 123 127 131 133 133 121 74 55 57 61 65 59 319 326 312 303 315 330 337 339
218 211 207 202 193 182 169 162 167 166 148 136 136 140 140 133 118 109 103 96 88 85 81 76 70 69 72 74 73 73 74 72 67 64 63 62 60 59 57 55 55 54 53 51 54 61 68 74 75 74 76 81 88 91 91 90 90 92 94 96 97 99 101 104 107 109 112 112 105 92 71 55 52 50 47 39 10 316 297 290 291 297 306 315 322